R/V Knorr Calliope CSV data file  (Time stamps are GMT)
Date, Time_GMT, Depth12, Depth35, Air_Temp, WXT5_Ta, WXT5_Pa, dec_lat, dec_lon, GPS_COG, GPS_SOG, Gyro, IMET_BPR, IMET_SWR, WXT5_Ri, WXT5_Rc, HRH, WXT5_Ua, WXT5_Dm, WXT5_Sm, SBE45C, SBE45S, SBE45T, Salinity, SSCND, Fluorometer, SSTMP, SSV, Wnd_Dir, TWD5, Wnd_Spd, TWS5, HdChkSum=3E
2009/04/14, 00:00:23, , , 27.73, 27.50, 1007.3, 7.9744600, -117.5888730, 290.30, 12.71, 289.90, 1007.16, 157.60, 0.0, 196.35, 77.87, 74.9, 87, 7.9, 55.53420, 33.19820, 29.8557, 33.1982, 55.5342, 72.60, 28.2251, 1539.91, 58.70, 53.6, 11.23, 10.0, 3E
2009/04/14, 00:01:23, , , 27.58, 27.50, 1007.5, 7.9754370, -117.5922720, 283.40, 12.33, 288.40, 1007.17, 152.90, 0.0, 196.35, 76.86, 73.8, 89, 9.5, 55.53790, 33.19860, 29.8587, 33.1986, 55.5379, 73.50, 28.2245, 1539.91, 53.90, 48.4, 10.65, 11.7, 3E
2009/04/14, 00:02:23, , , 27.57, 27.50, 1007.5, 7.9763900, -117.5956480, 284.60, 13.12, 289.60, 1007.49, 150.20, 0.0, 196.35, 77.15, 74.3, 92, 8.9, 55.53200, 33.19860, 29.8530, 33.1986, 55.5320, 72.90, 28.2230, 1539.91, 50.90, 52.9, 11.26, 11.1, 3E
2009/04/14, 00:03:23, , , 27.61, 27.50, 1007.5, 7.9773530, -117.5990280, 287.00, 12.09, 290.10, 1007.08, 151.10, 0.0, 196.35, 77.05, 73.0, 93, 9.0, 55.53180, 33.19860, 29.8528, 33.1986, 55.5318, 73.20, 28.2224, 1539.91, 52.80, 54.1, 10.80, 10.9, 3E
2009/04/14, 00:04:22, , , 27.62, 27.50, 1007.3, 7.9782950, -117.6023680, 288.20, 12.01, 288.20, 1007.09, 149.10, 0.0, 196.35, 77.20, 74.6, 89, 9.1, 55.53200, 33.19750, 29.8546, 33.1975, 55.5320, 73.50, 28.2211, 1539.90, 51.70, 49.7, 11.45, 11.7, 3E
2009/04/14, 00:05:22, , , 27.62, 27.50, 1007.5, 7.9792150, -117.6058270, 292.40, 12.73, 288.30, 1007.33, 145.80, 0.0, 196.35, 77.20, 75.5, 95, 9.1, 55.52510, 33.19760, 29.8477, 33.1976, 55.5251, 73.50, 28.2209, 1539.90, 54.00, 55.8, 11.00, 11.7, 3E
2009/04/14, 00:06:22, , , 27.54, 27.50, 1007.5, 7.9801580, -117.6091680, 291.60, 12.08, 287.80, 1007.09, 142.40, 0.0, 196.35, 76.87, 73.1, 87, 8.6, 55.53070, 33.19790, 29.8528, 33.1979, 55.5307, 73.50, 28.2209, 1539.90, 52.30, 48.3, 11.38, 10.6, 3E
2009/04/14, 00:07:22, , , 27.60, 27.50, 1007.3, 7.9810570, -117.6125930, 278.60, 12.84, 289.90, 1007.11, 139.00, 0.0, 196.35, 78.00, 73.8, 93, 8.5, 55.52810, 33.19750, 29.8506, 33.1975, 55.5281, 73.80, 28.2202, 1539.90, 54.10, 56.7, 9.98, 10.2, 3E
2009/04/14, 00:08:22, , , 27.50, 27.50, 1007.3, 7.9819570, -117.6160000, 282.30, 12.51, 289.40, 1007.16, 136.10, 0.0, 196.35, 77.05, 73.3, 95, 8.5, 55.51980, 33.19760, 29.8424, 33.1976, 55.5198, 74.10, 28.2205, 1539.90, 52.40, 52.1, 10.53, 10.1, 3E
2009/04/14, 00:09:22, , , 27.49, 27.40, 1007.3, 7.9829000, -117.6194370, 280.60, 12.44, 287.50, 1007.38, 133.50, 0.0, 196.35, 76.53, 72.1, 94, 7.1, 55.51920, 33.19740, 29.8422, 33.1974, 55.5192, 74.40, 28.2200, 1539.90, 53.40, 59.0, 12.22, 10.6, 3E
2009/04/14, 00:10:22, , , 27.55, 27.50, 1007.5, 7.9838480, -117.6228480, 293.80, 12.44, 288.90, 1007.05, 130.70, 0.0, 196.35, 76.97, 74.1, 92, 9.0, 55.50950, 33.19830, 29.8313, 33.1983, 55.5095, 74.40, 28.2198, 1539.90, 55.30, 51.1, 11.02, 11.8, 3E
2009/04/14, 00:11:22, , , 27.49, 27.50, 1007.5, 7.9848020, -117.6263370, 283.90, 12.87, 288.20, 1007.24, 128.00, 0.0, 196.35, 76.10, 75.0, 90, 9.4, 55.51130, 33.19760, 29.8342, 33.1976, 55.5113, 74.80, 28.2203, 1539.90, 53.10, 51.0, 11.38, 11.5, 3E
2009/04/14, 00:12:22, , , 27.61, 27.50, 1007.8, 7.9857930, -117.6297330, 286.10, 11.91, 288.40, 1006.92, 124.60, 0.0, 196.35, 76.95, 72.4, 85, 8.7, 55.51130, 33.19720, 29.8347, 33.1972, 55.5113, 74.80, 28.2215, 1539.90, 50.90, 49.2, 10.99, 10.1, 3E
2009/04/14, 00:13:22, , , 27.55, 27.50, 1007.4, 7.9867030, -117.6331570, 286.30, 12.89, 287.60, 1006.99, 121.40, 0.0, 196.35, 76.80, 74.1, 87, 9.5, 55.51500, 33.19730, 29.8383, 33.1973, 55.5150, 74.80, 28.2206, 1539.90, 50.70, 48.0, 10.91, 11.2, 3E
2009/04/14, 00:14:22, , , 27.54, 27.50, 1007.4, 7.9876430, -117.6365450, 287.40, 12.69, 289.80, 1007.29, 118.80, 0.0, 196.35, 77.18, 72.3, 81, 8.4, 55.51580, 33.19690, 29.8395, 33.1969, 55.5158, 74.80, 28.2210, 1539.90, 52.20, 50.2, 10.91, 9.9, 3E
2009/04/14, 00:15:22, , , 27.48, 27.40, 1007.2, 7.9886370, -117.6399100, 281.00, 13.06, 289.20, 1007.16, 116.50, 0.0, 196.35, 76.52, 73.4, 86, 8.4, 55.50890, 33.19740, 29.8321, 33.1974, 55.5089, 74.80, 28.2206, 1539.90, 50.90, 51.5, 10.50, 9.8, 3E
2009/04/14, 00:16:22, , , 27.51, 27.40, 1007.5, 7.9896480, -117.6432930, 293.00, 12.50, 289.00, 1007.15, 114.00, 0.0, 196.35, 76.21, 72.8, 88, 9.6, 55.51080, 33.19730, 29.8340, 33.1973, 55.5108, 75.00, 28.2201, 1539.90, 50.80, 47.7, 10.53, 10.7, 3E
2009/04/14, 00:17:22, , , 27.51, 27.40, 1007.3, 7.9906350, -117.6466180, 292.00, 12.19, 287.80, 1006.99, 112.20, 0.0, 196.35, 76.21, 72.8, 90, 9.4, 55.51180, 33.19680, 29.8358, 33.1968, 55.5118, 75.60, 28.2212, 1539.90, 49.10, 49.5, 11.60, 11.1, 3E
2009/04/14, 00:18:22, , , 27.46, 27.40, 1007.5, 7.9915900, -117.6500680, 285.00, 11.60, 288.90, 1007.16, 109.60, 0.0, 196.35, 75.26, 71.4, 86, 7.9, 55.51280, 33.19730, 29.8361, 33.1973, 55.5128, 75.00, 28.2214, 1539.90, 50.00, 51.0, 10.88, 10.1, 3E
2009/04/14, 00:19:22, , , 27.54, 27.50, 1007.5, 7.9925400, -117.6533630, 283.00, 12.57, 289.00, 1006.91, 105.60, 0.0, 196.35, 75.90, 74.9, 79, 9.7, 55.50900, 33.19740, 29.8321, 33.1974, 55.5090, 75.30, 28.2215, 1539.90, 51.60, 40.7, 10.52, 9.7, 3E
2009/04/14, 00:20:22, , , 27.58, 27.50, 1007.7, 7.9935320, -117.6567170, 280.60, 12.26, 287.90, 1007.24, 102.70, 0.0, 196.35, 76.55, 73.2, 84, 9.9, 55.51090, 33.19760, 29.8338, 33.1976, 55.5109, 75.60, 28.2218, 1539.90, 45.80, 45.4, 10.19, 10.6, 3E
2009/04/14, 00:21:22, , , 27.51, 27.50, 1007.6, 7.9945250, -117.6601950, 282.80, 13.37, 288.90, 1007.34, 100.60, 0.0, 196.35, 76.10, 74.0, 77, 9.4, 55.51220, 33.19740, 29.8353, 33.1974, 55.5122, 75.60, 28.2217, 1539.90, 45.80, 40.6, 10.73, 9.7, 3E
2009/04/14, 00:22:22, , , 27.52, 27.50, 1007.7, 7.9955130, -117.6635470, 289.10, 12.46, 290.30, 1007.18, 99.10, 0.0, 196.35, 76.20, 72.4, 71, 8.7, 55.50890, 33.19840, 29.8307, 33.1984, 55.5089, 76.00, 28.2221, 1539.90, 47.30, 39.8, 10.06, 8.5, 3E
2009/04/14, 00:23:23, , , 27.51, 27.40, 1007.7, 7.9964770, -117.6669950, 283.40, 12.29, 288.40, 1007.67, 97.60, 0.0, 196.35, 76.01, 72.6, 81, 9.6, 55.50700, 33.19830, 29.8290, 33.1983, 55.5070, 76.00, 28.2224, 1539.91, 45.70, 43.9, 10.10, 10.5, 3E
2009/04/14, 00:24:22, , , 27.45, 27.40, 1007.7, 7.9974400, -117.6703070, 290.00, 12.52, 289.60, 1007.20, 96.10, 0.0, 196.35, 75.62, 72.3, 86, 8.9, 55.49990, 33.19890, 29.8210, 33.1989, 55.4999, 76.30, 28.2229, 1539.91, 44.40, 48.3, 11.48, 11.3, 3E
2009/04/14, 00:25:22, , , 27.54, 27.40, 1007.6, 7.9983930, -117.6736950, 278.50, 12.53, 288.00, 1007.30, 94.70, 0.0, 196.35, 75.90, 73.0, 84, 8.9, 55.50650, 33.19910, 29.8272, 33.1991, 55.5065, 76.30, 28.2234, 1539.91, 50.10, 49.5, 10.53, 10.1, 3E
2009/04/14, 00:26:22, , , 27.61, 27.50, 1007.7, 7.9993530, -117.6771050, 284.70, 13.53, 288.20, 1007.41, 93.20, 0.0, 196.35, 77.13, 74.0, 79, 9.3, 55.51020, 33.19950, 29.8304, 33.1995, 55.5102, 76.30, 28.2245, 1539.91, 50.40, 44.2, 10.43, 10.2, 3E
2009/04/14, 00:27:22, , , 27.48, 27.50, 1007.7, 8.0003100, -117.6805180, 290.50, 13.47, 289.70, 1006.98, 91.70, 0.0, 196.35, 77.13, 74.2, 85, 9.3, 55.50890, 33.19890, 29.8300, 33.1989, 55.5089, 77.20, 28.2260, 1539.91, 47.50, 45.1, 9.91, 10.2, 3E
2009/04/14, 00:28:22, , , 27.48, 27.40, 1007.8, 8.0012850, -117.6838830, 290.20, 12.49, 288.20, 1007.73, 90.00, 0.0, 196.35, 77.13, 74.2, 82, 8.7, 55.51130, 33.19930, 29.8317, 33.1993, 55.5113, 76.80, 28.2261, 1539.91, 45.20, 46.1, 11.44, 10.7, 3E
2009/04/14, 00:29:22, , , 27.48, 27.40, 1007.8, 8.0022800, -117.6872480, 288.00, 13.03, 289.60, 1007.65, 88.10, 0.0, 196.35, 76.96, 74.0, 84, 8.5, 55.50550, 33.19990, 29.8251, 33.1999, 55.5055, 76.80, 28.2267, 1539.92, 46.50, 48.6, 11.15, 10.6, 3E
2009/04/14, 00:30:23, , , 27.51, 27.40, 1007.7, 8.0032180, -117.6906300, 285.20, 12.73, 288.90, 1007.39, 87.80, 0.0, 196.35, 78.00, 74.3, 85, 7.9, 55.50360, 33.19950, 29.8238, 33.1995, 55.5036, 77.20, 28.2267, 1539.92, 49.10, 47.9, 10.50, 9.4, 3E
2009/04/14, 00:31:22, , , 27.52, 27.40, 1007.7, 8.0041520, -117.6940120, 286.70, 12.19, 288.90, 1008.01, 87.20, 0.0, 196.35, 77.33, 75.4, 84, 7.4, 55.50570, 33.19940, 29.8261, 33.1994, 55.5057, 77.20, 28.2274, 1539.92, 48.80, 50.2, 10.59, 9.6, 3E
2009/04/14, 00:32:22, , , 27.44, 27.40, 1008.1, 8.0051380, -117.6973830, 286.80, 12.39, 288.30, 1007.58, 86.80, 0.0, 196.35, 77.41, 75.4, 84, 7.9, 55.50120, 33.20030, 29.8203, 33.2003, 55.5012, 77.20, 28.2272, 1539.92, 52.20, 50.8, 9.72, 9.4, 3E
2009/04/14, 00:33:22, , , 27.54, 27.40, 1008.1, 8.0061050, -117.7008530, 280.20, 12.54, 289.20, 1007.54, 87.40, 0.0, 196.35, 77.61, 74.1, 86, 8.7, 55.50410, 33.20070, 29.8226, 33.2007, 55.5041, 77.20, 28.2282, 1539.92, 50.10, 49.5, 10.10, 10.5, 3E
2009/04/14, 00:34:22, , , 27.52, 27.40, 1008.1, 8.0071080, -117.7042070, 290.60, 13.02, 289.60, 1007.57, 87.60, 0.0, 196.35, 77.86, 73.6, 74, 7.6, 55.50310, 33.20080, 29.8214, 33.2008, 55.5031, 77.20, 28.2285, 1539.92, 49.50, 47.6, 11.34, 9.4, 3E
2009/04/14, 00:35:22, , , 27.50, 27.40, 1007.7, 8.0080870, -117.7076380, 286.20, 12.31, 289.70, 1007.62, 87.10, 0.0, 196.35, 76.94, 73.8, 75, 8.5, 55.50280, 33.20070, 29.8213, 33.2007, 55.5028, 77.80, 28.2289, 1539.92, 47.20, 41.6, 9.64, 9.2, 3E
2009/04/14, 00:36:23, , , 27.43, 27.40, 1007.8, 8.0090320, -117.7109570, 281.40, 13.28, 289.60, 1007.62, 86.20, 0.0, 196.35, 76.01, 73.6, 79, 8.9, 55.50170, 33.20170, 29.8188, 33.2017, 55.5017, 77.50, 28.2289, 1539.92, 46.70, 44.4, 9.63, 9.6, 3E
2009/04/14, 00:37:22, , , 27.59, 27.40, 1007.9, 8.0100700, -117.7143220, 284.30, 12.22, 288.70, 1007.77, 84.90, 0.0, 196.35, 77.04, 71.9, 78, 7.8, 55.49750, 33.20170, 29.8146, 33.2017, 55.4975, 77.80, 28.2305, 1539.93, 48.40, 50.2, 9.55, 8.5, 3E
2009/04/14, 00:38:22, , , 27.54, 27.50, 1007.7, 8.0110530, -117.7177670, 286.10, 12.42, 288.00, 1007.62, 81.50, 0.0, 196.35, 76.45, 73.6, 76, 8.6, 55.49930, 33.20250, 29.8153, 33.2025, 55.4993, 77.50, 28.2300, 1539.93, 46.00, 42.4, 10.39, 10.1, 3E
2009/04/14, 00:39:22, , , 27.60, 27.50, 1008.3, 8.0120720, -117.7211080, 290.20, 12.00, 288.80, 1007.55, 74.70, 0.0, 196.35, 77.43, 74.1, 74, 8.8, 55.50550, 33.20210, 29.8219, 33.2021, 55.5055, 77.80, 28.2309, 1539.93, 46.10, 37.7, 10.00, 9.5, 3E
2009/04/14, 00:40:22, , , 27.58, 27.50, 1008.2, 8.0130000, -117.7243930, 278.10, 12.60, 288.10, 1007.75, 67.70, 0.0, 196.35, 78.44, 74.8, 78, 8.3, 55.50700, 33.20320, 29.8217, 33.2032, 55.5070, 77.80, 28.2306, 1539.93, 44.80, 42.3, 9.16, 8.3, 3E
2009/04/14, 00:41:23, , , 27.58, 27.50, 1008.0, 8.0139570, -117.7277830, 281.50, 12.50, 288.20, 1007.64, 65.10, 0.0, 196.35, 78.44, 75.0, 69, 8.2, 55.50280, 33.20280, 29.8183, 33.2028, 55.5028, 77.80, 28.2314, 1539.93, 44.20, 42.0, 9.63, 9.3, 3E
2009/04/14, 00:42:22, , , 27.47, 27.40, 1008.0, 8.0149180, -117.7310600, 285.00, 11.97, 288.10, 1007.82, 66.70, 0.0, 196.35, 78.23, 73.3, 68, 7.8, 55.50570, 33.20340, 29.8203, 33.2034, 55.5057, 78.10, 28.2309, 1539.93, 44.60, 43.2, 10.24, 8.5, 3E
2009/04/14, 00:43:22, , , 27.54, 27.40, 1008.1, 8.0158650, -117.7343970, 279.90, 12.25, 288.50, 1007.37, 69.70, 0.0, 196.35, 78.64, 75.3, 76, 9.3, 55.50310, 33.20360, 29.8174, 33.2036, 55.5031, 78.10, 28.2301, 1539.93, 43.30, 34.8, 9.17, 9.0, 3E
2009/04/14, 00:44:22, , , 27.40, 27.40, 1008.1, 8.0168200, -117.7377370, 288.20, 11.86, 289.30, 1007.96, 71.70, 0.0, 196.35, 77.37, 73.7, 77, 9.2, 55.50250, 33.20350, 29.8170, 33.2035, 55.5025, 78.10, 28.2303, 1539.93, 39.70, 40.5, 10.60, 10.3, 3E
2009/04/14, 00:45:22, , , 27.46, 27.40, 1008.1, 8.0178070, -117.7410570, 284.90, 13.04, 288.70, 1007.85, 72.60, 0.0, 196.35, 77.78, 73.1, 76, 8.3, 55.50200, 33.20400, 29.8156, 33.2040, 55.5020, 78.40, 28.2300, 1539.93, 48.40, 48.9, 9.85, 8.8, 3E
2009/04/14, 00:46:22, , , 27.48, 27.40, 1008.1, 8.0187620, -117.7443750, 283.70, 12.29, 288.60, 1007.85, 73.60, 0.0, 196.35, 77.01, 73.3, 76, 8.3, 55.50150, 33.20410, 29.8150, 33.2041, 55.5015, 78.10, 28.2299, 1539.93, 45.70, 43.8, 10.48, 9.2, 3E
2009/04/14, 00:47:22, , , 27.60, 27.40, 1007.9, 8.0197600, -117.7476920, 289.40, 12.68, 288.00, 1007.76, 74.20, 0.0, 196.35, 78.05, 73.5, 71, 7.9, 55.49700, 33.20400, 29.8107, 33.2040, 55.4970, 78.40, 28.2309, 1539.93, 47.60, 41.5, 9.54, 7.9, 3E
2009/04/14, 00:48:23, , , 27.46, 27.50, 1007.6, 8.0207200, -117.7510700, 291.00, 13.01, 288.00, 1007.60, 74.50, 0.0, 196.35, 76.52, 73.7, 71, 8.5, 55.49670, 33.20440, 29.8099, 33.2044, 55.4967, 78.40, 28.2318, 1539.93, 47.50, 38.9, 9.65, 8.9, 3E
2009/04/14, 00:49:22, , , 27.41, 27.40, 1007.9, 8.0217020, -117.7543400, 284.70, 12.40, 287.60, 1007.77, 73.80, 0.0, 196.35, 75.26, 71.6, 77, 9.8, 55.49670, 33.20510, 29.8089, 33.2051, 55.4967, 78.40, 28.2316, 1539.93, 41.40, 39.7, 10.79, 10.6, 3E
2009/04/14, 00:50:23, , , 27.51, 27.40, 1008.1, 8.0227080, -117.7577550, 291.80, 12.59, 287.90, 1007.51, 75.70, 0.0, 196.35, 75.68, 70.9, 79, 8.2, 55.49350, 33.20550, 29.8052, 33.2055, 55.4935, 78.40, 28.2318, 1539.93, 39.60, 45.1, 11.37, 9.8, 3E
2009/04/14, 00:51:23, , , 27.64, 27.40, 1008.0, 8.0236950, -117.7610880, 282.80, 13.24, 289.30, 1007.45, 76.90, 0.0, 196.35, 76.48, 71.1, 77, 8.3, 55.49620, 33.20550, 29.8078, 33.2055, 55.4962, 78.40, 28.2314, 1539.93, 49.80, 47.5, 9.64, 8.9, 3E
2009/04/14, 00:52:23, , , 27.54, 27.50, 1008.0, 8.0247400, -117.7645280, 288.70, 12.55, 289.50, 1007.69, 77.60, 0.0, 196.35, 76.83, 72.9, 74, 8.5, 55.49750, 33.20520, 29.8095, 33.2052, 55.4975, 78.40, 28.2323, 1539.93, 47.30, 47.2, 10.41, 10.0, 3E
2009/04/14, 00:53:23, , , 27.53, 27.50, 1008.2, 8.0257830, -117.7679080, 292.10, 12.46, 287.60, 1007.58, 77.40, 0.0, 196.35, 76.58, 73.8, 78, 8.3, 55.49100, 33.20540, 29.8029, 33.2054, 55.4910, 78.10, 28.2334, 1539.94, 45.50, 43.4, 9.90, 9.1, 3E
2009/04/14, 00:54:23, , , 27.53, 27.50, 1008.2, 8.0267770, -117.7712820, 288.80, 12.22, 289.30, 1007.93, 77.10, 0.0, 196.35, 76.58, 72.3, 79, 8.0, 55.49030, 33.20560, 29.8019, 33.2056, 55.4903, 78.10, 28.2341, 1539.94, 46.20, 48.9, 10.01, 9.5, 3E
2009/04/14, 00:55:23, , , 27.52, 27.50, 1008.0, 8.0277930, -117.7746430, 291.20, 12.33, 287.90, 1007.84, 74.70, 0.0, 196.35, 76.60, 74.7, 75, 8.0, 55.48740, 33.20520, 29.7996, 33.2052, 55.4874, 78.40, 28.2347, 1539.94, 47.50, 48.7, 9.52, 9.7, 3E
2009/04/14, 00:56:23, , , 27.63, 27.50, 1008.0, 8.0287480, -117.7779730, 293.20, 12.52, 289.60, 1008.17, 72.40, 0.0, 196.35, 77.66, 74.3, 74, 8.9, 55.48530, 33.20540, 29.7973, 33.2054, 55.4853, 78.10, 28.2354, 1539.94, 47.70, 42.6, 9.86, 10.7, 3E
2009/04/14, 00:57:22, , , 27.54, 27.50, 1007.7, 8.0297200, -117.7813550, 279.70, 12.88, 289.60, 1008.25, 71.80, 0.0, 196.35, 77.81, 73.9, 77, 8.9, 55.48590, 33.20580, 29.7973, 33.2058, 55.4859, 78.10, 28.2361, 1539.94, 41.50, 42.8, 11.17, 10.4, 3E
2009/04/14, 00:58:22, , , 27.49, 27.40, 1008.2, 8.0307770, -117.7847520, 277.20, 12.66, 289.20, 1007.67, 70.40, 0.0, 196.35, 77.92, 76.3, 76, 9.1, 55.48950, 33.20630, 29.8002, 33.2063, 55.4895, 78.10, 28.2373, 1539.95, 45.30, 42.8, 9.98, 9.2, 3E
2009/04/14, 00:59:22, , , 27.41, 27.40, 1007.9, 8.0317820, -117.7881230, 287.80, 12.07, 288.90, 1007.45, 69.40, 0.0, 196.35, 77.28, 74.9, 79, 9.2, 55.48630, 33.20540, 29.7983, 33.2054, 55.4863, 78.10, 28.2389, 1539.95, 45.80, 45.8, 10.78, 10.8, 3E
2009/04/14, 01:00:22, , , 27.43, 27.40, 1008.0, 8.0327500, -117.7914650, 286.50, 12.45, 288.90, 1007.86, 66.80, 0.0, 196.35, 77.11, 74.9, 82, 9.0, 55.48430, 33.20620, 29.7952, 33.2062, 55.4843, 78.10, 28.2406, 1539.95, 45.40, 46.1, 9.86, 9.6, 3E
2009/04/14, 01:01:23, , , 27.56, 27.40, 1008.0, 8.0337730, -117.7948750, 284.10, 12.59, 290.40, 1007.71, 63.10, 0.0, 196.35, 78.06, 73.2, 79, 7.8, 55.48080, 33.20540, 29.7928, 33.2054, 55.4808, 78.10, 28.2408, 1539.95, 45.00, 46.2, 9.77, 8.0, 3E
2009/04/14, 01:02:23, , , 27.48, 27.40, 1008.3, 8.0347780, -117.7982500, 283.70, 13.18, 289.20, 1007.96, 61.30, 0.0, 196.35, 78.03, 74.2, 77, 8.8, 55.48290, 33.20630, 29.7936, 33.2063, 55.4829, 78.40, 28.2425, 1539.96, 49.20, 44.0, 9.75, 9.6, 3E
2009/04/14, 01:03:22, , , 27.42, 27.40, 1008.3, 8.0357630, -117.8015700, 286.30, 12.18, 288.80, 1007.94, 60.90, 0.0, 196.35, 77.52, 75.5, 73, 8.4, 55.48420, 33.20720, 29.7936, 33.2072, 55.4842, 78.40, 28.2434, 1539.96, 47.50, 43.3, 9.98, 8.8, 3E
2009/04/14, 01:04:22, , , 27.45, 27.40, 1008.3, 8.0367600, -117.8049400, 285.90, 11.88, 287.60, 1007.54, 61.20, 0.0, 196.35, 77.28, 73.7, 80, 8.6, 55.48620, 33.20710, 29.7957, 33.2071, 55.4862, 78.40, 28.2443, 1539.96, 40.40, 41.1, 9.56, 9.0, 3E
2009/04/14, 01:05:23, , , 27.52, 27.40, 1008.0, 8.0377320, -117.8083750, 286.80, 12.48, 288.90, 1007.89, 60.40, 0.0, 196.35, 77.89, 73.7, 84, 9.1, 55.47810, 33.20710, 29.7877, 33.2071, 55.4781, 78.40, 28.2462, 1539.97, 45.60, 46.6, 10.57, 9.2, 3E
2009/04/14, 01:06:22, , , 27.52, 27.40, 1008.2, 8.0386970, -117.8117220, 281.30, 13.10, 287.70, 1008.11, 58.40, 0.0, 196.35, 77.89, 74.4, 78, 8.0, 55.47700, 33.20630, 29.7879, 33.2063, 55.4770, 78.40, 28.2469, 1539.97, 48.70, 44.5, 10.97, 9.7, 3E
2009/04/14, 01:07:22, , , 27.47, 27.40, 1008.3, 8.0396850, -117.8151000, 297.00, 12.22, 288.70, 1007.91, 54.80, 0.0, 196.35, 77.47, 74.4, 76, 8.7, 55.47620, 33.20630, 29.7872, 33.2063, 55.4762, 78.70, 28.2479, 1539.97, 44.30, 40.7, 10.78, 9.1, 3E
2009/04/14, 01:08:22, , , 27.61, 27.40, 1007.9, 8.0406850, -117.8184520, 285.40, 11.92, 289.60, 1008.08, 52.40, 0.0, 196.35, 78.74, 74.7, 73, 9.5, 55.47940, 33.20680, 29.7895, 33.2068, 55.4794, 78.40, 28.2482, 1539.97, 41.80, 32.0, 9.29, 8.8, 3E
2009/04/14, 01:09:22, , , 27.41, 27.40, 1008.3, 8.0416820, -117.8218150, 282.60, 12.52, 289.40, 1007.55, 50.50, 0.0, 196.35, 77.42, 73.7, 78, 9.2, 55.48310, 33.20630, 29.7939, 33.2063, 55.4831, 78.40, 28.2484, 1539.97, 40.10, 42.0, 9.61, 9.4, 3E
2009/04/14, 01:10:22, , , 27.37, 27.40, 1008.3, 8.0426600, -117.8251780, 285.90, 11.71, 288.40, 1007.48, 49.80, 0.0, 196.35, 76.94, 73.8, 85, 8.9, 55.47810, 33.20700, 29.7879, 33.2070, 55.4781, 78.70, 28.2486, 1539.97, 44.00, 49.3, 10.14, 9.9, 3E
2009/04/14, 01:11:22, , , 27.41, 27.40, 1008.3, 8.0436730, -117.8286170, 280.70, 12.53, 289.00, 1007.74, 50.00, 0.0, 196.35, 76.42, 72.9, 78, 9.1, 55.47920, 33.20710, 29.7889, 33.2071, 55.4792, 78.70, 28.2495, 1539.97, 48.80, 43.8, 10.47, 9.5, 3E
2009/04/14, 01:12:22, , , 27.45, 27.40, 1008.5, 8.0446550, -117.8319670, 278.10, 12.42, 287.80, 1007.99, 49.50, 0.0, 196.35, 77.58, 75.4, 80, 9.0, 55.47860, 33.20790, 29.7872, 33.2079, 55.4786, 79.00, 28.2504, 1539.98, 47.80, 47.9, 9.57, 9.7, 3E
2009/04/14, 01:13:23, , , 27.43, 27.40, 1008.4, 8.0456330, -117.8354080, 282.90, 12.40, 288.60, 1007.84, 49.20, 0.0, 196.35, 77.00, 73.5, 84, 9.6, 55.47810, 33.20720, 29.7877, 33.2072, 55.4781, 78.70, 28.2503, 1539.98, 42.50, 43.8, 9.91, 10.1, 3E
2009/04/14, 01:14:22, , , 27.46, 27.40, 1008.2, 8.0466530, -117.8387030, 290.60, 12.03, 288.40, 1007.96, 48.20, 0.0, 196.35, 76.93, 74.0, 84, 8.6, 55.48080, 33.20740, 29.7900, 33.2074, 55.4808, 78.40, 28.2515, 1539.98, 46.00, 48.3, 10.33, 9.4, 3E
2009/04/14, 01:15:23, , , 27.54, 27.40, 1008.2, 8.0476400, -117.8421300, 279.70, 12.29, 288.20, 1008.30, 46.10, 0.0, 196.35, 77.56, 74.0, 82, 8.6, 55.48180, 33.20760, 29.7907, 33.2076, 55.4818, 78.70, 28.2522, 1539.98, 51.30, 48.4, 9.97, 9.1, 3E
2009/04/14, 01:16:23, , , 27.42, 27.40, 1008.1, 8.0486250, -117.8455070, 283.90, 12.60, 289.30, 1008.09, 44.70, 0.0, 196.35, 76.91, 73.9, 85, 9.9, 55.48160, 33.20780, 29.7902, 33.2078, 55.4816, 78.70, 28.2534, 1539.98, 46.70, 42.1, 10.62, 11.5, 3E
2009/04/14, 01:17:23, , , 27.44, 27.40, 1007.8, 8.0496100, -117.8489170, 290.00, 12.45, 288.50, 1007.83, 43.80, 0.0, 196.35, 77.75, 74.4, 80, 8.2, 55.47570, 33.20770, 29.7846, 33.2077, 55.4757, 78.70, 28.2542, 1539.99, 48.30, 48.9, 10.96, 10.3, 3E
2009/04/14, 01:18:22, , , 27.44, 27.40, 1008.2, 8.0506000, -117.8522850, 282.90, 12.74, 289.30, 1007.87, 42.60, 0.0, 196.35, 77.75, 75.0, 83, 7.8, 55.47330, 33.20830, 29.7813, 33.2083, 55.4733, 78.70, 28.2541, 1539.99, 47.40, 49.2, 10.87, 10.2, 3E
2009/04/14, 01:19:22, , , 27.39, 27.40, 1008.0, 8.0515920, -117.8556800, 295.30, 12.28, 287.70, 1007.68, 40.50, 0.0, 196.35, 77.36, 75.1, 76, 8.5, 55.47120, 33.20850, 29.7789, 33.2085, 55.4712, 78.40, 28.2552, 1539.99, 47.10, 40.5, 11.19, 10.3, 3E
2009/04/14, 01:20:22, , , 27.50, 27.40, 1008.1, 8.0525420, -117.8590880, 289.00, 11.75, 288.80, 1007.62, 38.30, 0.0, 196.35, 78.27, 75.2, 82, 7.7, 55.46880, 33.20900, 29.7758, 33.2090, 55.4688, 78.70, 28.2552, 1539.99, 44.20, 47.0, 9.77, 10.2, 3E
2009/04/14, 01:21:22, , , 27.40, 27.40, 1008.0, 8.0535000, -117.8624620, 284.10, 12.14, 288.60, 1007.91, 35.90, 0.0, 196.35, 77.40, 75.0, 80, 9.0, 55.47220, 33.20870, 29.7797, 33.2087, 55.4722, 78.70, 28.2560, 1539.99, 48.30, 42.9, 10.78, 10.5, 3E
2009/04/14, 01:22:22, , , 27.39, 27.40, 1008.0, 8.0544850, -117.8658220, 283.50, 11.95, 289.40, 1007.78, 34.20, 0.0, 196.35, 77.42, 73.9, 88, 7.8, 55.47440, 33.20910, 29.7812, 33.2091, 55.4744, 78.40, 28.2555, 1539.99, 45.90, 53.0, 10.47, 9.7, 3E
2009/04/14, 01:23:22, , , 27.44, 27.40, 1008.4, 8.0554530, -117.8692650, 280.80, 12.51, 288.30, 1007.68, 32.30, 0.0, 196.35, 77.89, 75.4, 81, 7.7, 55.47490, 33.20820, 29.7830, 33.2082, 55.4749, 78.40, 28.2561, 1539.99, 53.20, 52.5, 9.69, 8.7, 3E
2009/04/14, 01:24:22, , , 27.53, 27.40, 1007.9, 8.0564300, -117.8726480, 288.70, 13.08, 288.60, 1008.04, 30.00, 0.0, 196.35, 78.35, 74.6, 84, 8.5, 55.47280, 33.20980, 29.7786, 33.2098, 55.4728, 77.80, 28.2565, 1539.99, 50.50, 49.9, 10.17, 10.4, 3E
2009/04/14, 01:25:23, , , 27.34, 27.40, 1008.2, 8.0573830, -117.8759880, 290.10, 12.41, 289.20, 1007.83, 28.00, 0.0, 196.35, 76.79, 74.2, 86, 9.0, 55.47110, 33.21000, 29.7768, 33.2100, 55.4711, 77.80, 28.2565, 1539.99, 49.00, 47.6, 10.39, 10.7, 3E
2009/04/14, 01:26:22, , , 27.48, 27.40, 1008.2, 8.0584180, -117.8794350, 286.30, 12.58, 288.40, 1007.66, 26.40, 0.0, 196.35, 78.36, 73.4, 79, 6.8, 55.47410, 33.20980, 29.7798, 33.2098, 55.4741, 77.20, 28.2570, 1539.99, 50.40, 51.2, 10.80, 8.8, 3E
2009/04/14, 01:27:23, , , 27.50, 27.40, 1008.5, 8.0593830, -117.8828150, 285.30, 13.19, 288.90, 1008.02, 24.30, 0.0, 196.35, 78.20, 76.0, 81, 7.9, 55.47140, 33.21020, 29.7768, 33.2102, 55.4714, 77.50, 28.2560, 1539.99, 55.00, 51.5, 9.16, 8.8, 3E
2009/04/14, 01:28:22, , , 27.39, 27.40, 1008.0, 8.0603580, -117.8861450, 280.20, 13.00, 288.40, 1007.76, 22.80, 0.0, 196.35, 77.74, 74.3, 83, 8.9, 55.47330, 33.20980, 29.7791, 33.2098, 55.4733, 76.80, 28.2566, 1539.99, 51.40, 49.6, 9.54, 9.7, 3E
2009/04/14, 01:29:23, , , 27.39, 27.40, 1008.2, 8.0613680, -117.8895330, 287.50, 12.25, 288.90, 1007.78, 21.20, 0.0, 196.35, 77.96, 74.9, 85, 7.3, 55.47380, 33.21030, 29.7790, 33.2103, 55.4738, 76.50, 28.2564, 1539.99, 51.50, 48.8, 10.54, 9.6, 3E
2009/04/14, 01:30:22, , , 27.45, 27.40, 1008.0, 8.0624170, -117.8929720, 287.20, 12.33, 288.20, 1007.83, 19.40, 0.0, 196.35, 78.25, 75.7, 81, 7.5, 55.47140, 33.21020, 29.7768, 33.2102, 55.4714, 76.30, 28.2552, 1539.99, 51.90, 54.4, 10.36, 9.0, 3E
2009/04/14, 01:31:22, , , 27.45, 27.40, 1008.2, 8.0634030, -117.8963600, 284.60, 12.18, 288.70, 1007.82, 17.80, 0.0, 196.35, 78.25, 76.6, 76, 8.7, 55.47250, 33.21130, 29.7762, 33.2113, 55.4725, 76.30, 28.2555, 1539.99, 48.00, 43.3, 9.84, 9.6, 3E
2009/04/14, 01:32:23, , , 27.48, 27.40, 1008.1, 8.0643780, -117.8997400, 290.00, 12.34, 290.30, 1008.04, 16.40, 0.0, 196.35, 78.56, 75.1, 82, 9.0, 55.48350, 33.21060, 29.7880, 33.2106, 55.4835, 75.60, 28.2551, 1539.99, 48.20, 46.1, 10.24, 10.4, 3E
2009/04/14, 01:33:22, , , 27.35, 27.40, 1008.3, 8.0653930, -117.9030650, 284.60, 12.00, 287.60, 1007.87, 15.30, 0.0, 196.35, 77.75, 75.1, 82, 7.4, 55.47920, 33.21160, 29.7823, 33.2116, 55.4792, 75.30, 28.2527, 1539.99, 46.70, 47.8, 10.49, 10.1, 3E
2009/04/14, 01:34:22, , , 27.45, 27.40, 1008.4, 8.0663700, -117.9065030, 281.00, 12.74, 289.60, 1008.10, 14.40, 0.0, 196.35, 79.09, 75.4, 81, 8.5, 55.48210, 33.21160, 29.7852, 33.2116, 55.4821, 75.30, 28.2524, 1539.99, 54.00, 48.8, 9.76, 9.4, 3E